User: anonymous   Login
Location: Theodore Roosevelt National Park
(46.9990°N, 103.4631°W)
Time: 14:35:52
(UTC-06:00)
Language:

Cosmos 2219 Rocket - Orbit

View from above orbital plane
View from above orbital plane
View from above satellite
View from above satellite

Ground track
Ground track

The orbit data is extracted from the following two-line orbital elements,

1 22220U 92076B   17088.81388963 -.00000154 +00000-0 -53378-4 0  9994
2 22220 070.9995 226.3241 0011710 024.9398 080.6789 14.16410932259537
Epoch (UTC): 29 March 2017 19:32:00
Eccentricity: 0.0011710
inclination: 70.9995°
perigee height: 829 km
apogee height: 846 km
right ascension of ascending node: 226.3241°
argument of perigee: 24.9398°
revolutions per day: 14.16410932
mean anomaly at epoch: 80.6789°
orbit number at epoch: 25953

The dashed part of the orbit path shows where the satellite is in the earth's shadow,  

DLR